Location: Bohain
(49.9873°N, 3.4530°E)
Time: 00:36:29
(UTC+00:00)

Daily predictions for brighter satellites

Satellite Brightness Start Highest point End
(mag) Time Altitude Azimuth Time Altitude Azimuth Time Altitude Azimuth
CENTAUR R/B 4.5 02:05:13 27° NNE 02:05:13 27° NNE 02:09:51 10° NE
ACS3 Solar Sail 3.9 02:00:49 10° NE 02:03:45 20° ENE 02:03:45 20° ENE
ADEOS Rocket 4.1 02:33:23 10° NNE 02:38:45 44° ENE 02:38:45 44° ENE
BREEZE-M DEB (TANK) 4.5 02:53:28 76° SSE 02:53:28 76° SSE 03:13:19 10° ESE
Cosmos 2219 Rocket 3.7 02:55:06 33° ENE 02:55:06 33° ENE 02:58:57 10° NE
CZ-2D R/B 4.5 03:13:46 10° N 03:14:23 13° N 03:14:23 13° N
USA 267 3.4 03:13:56 10° ENE 03:20:18 67° SE 03:20:18 67° SE
Cosmos 1980 Rocket 4.4 03:27:56 14° N 03:27:56 14° N 03:29:18 10° N
H-2A R/B 3.9 03:26:30 10° NNE 03:28:05 21° NNE 03:28:05 21° NNE
USA 238 DEB 4.1 03:33:04 47° N 03:33:04 47° N 03:38:50 10° NE
USA 238 4.1 03:33:10 47° N 03:33:10 47° N 03:38:57 10° NE
Cosmos 2278 Rocket 3.7 03:29:48 23° N 03:32:22 33° NE 03:37:28 10° ESE
Cosmos 2333 Rocket 3.2 03:39:30 37° N 03:39:30 37° N 03:43:08 10° NNE
ADEOS II 4.2 03:38:47 10° N 03:39:55 16° N 03:39:55 16° N
COSMOS 2455 3.1 03:45:06 56° N 03:45:06 56° N 03:50:07 10° NNE
Lacrosse 5 rocket 3.8 03:46:58 15° NE 03:46:58 15° NE 03:47:38 10° NE
Cosmos 1153 Rocket 4.4 03:39:21 10° N 03:45:33 82° E 03:51:48 10° SSE
Cosmos 2298 Rocket 4.3 03:46:57 65° NE 03:46:57 65° NE 03:51:31 10° NNE
ACS3 Solar Sail 2.0 03:43:02 10° N 03:47:53 57° NNW 03:47:53 57° NNW
BlueWalker 3 4.1 03:53:51 21° ESE 03:53:51 21° ESE 03:55:10 10° ESE
Resurs 1-4 Rocket 4.4 03:47:45 10° N 03:48:13 12° N 03:48:13 12° N
CENTAUR R/B 4.2 03:52:18 23° NNW 03:55:43 32° NNE 04:03:22 10° ENE
Cosmos 2360 Rocket 2.8 03:59:09 44° NNW 03:59:09 44° NNW 04:03:29 10° NNE
Cosmos 2322 Rocket 2.9 03:59:32 40° NNW 03:59:32 40° NNW 04:03:40 10° NNE
USA 234 3.2 03:51:53 10° SE 03:58:22 63° SW 03:58:53 61° WSW
Gbstr 26 Del rocket 4.3 03:59:16 37° SSE 04:00:04 40° SE 04:05:22 10° ENE
SL-16 R/B 3.5 04:06:02 26° NNW 04:06:02 26° NNW 04:09:26 10° NNE
Cosmos 44 Rocket 3.3 04:05:02 78° N 04:05:19 82° NE 04:10:29 10° SE
Cosmos 1943 Rocket 2.7 04:06:17 24° NNW 04:09:35 56° NE 04:15:00 10° SE
Meteor 2-14 Rocket 4.4 04:05:58 10° S 04:12:05 83° E 04:18:13 10° NNE
Okean 1-7 3.5 04:13:10 50° NNE 04:13:10 50° NNE 04:16:21 10° NNE
H-2A R/B 4.1 04:08:28 10° NNE 04:11:15 44° NE 04:11:15 44° NE
NOSS 2-1 (C) 4.3 04:14:58 36° ESE 04:14:58 36° ESE 04:17:26 10° ENE
ARGOS 3.0 04:09:25 10° NNE 04:14:51 76° WNW 04:16:17 50° SW
PAYLOAD A 4.1 04:10:14 10° NNE 04:15:41 85° ESE 04:20:29 13° SSW
Cosmos 1908 Rocket 4.2 04:11:32 10° N 04:15:56 55° ENE 04:20:16 10° SSE
Cosmos 1140 Rocket 3.4 04:15:55 41° NNW 04:17:47 86° ENE 04:22:53 10° SSE
NOSS 2-1 (D) 4.0 04:19:05 41° E 04:19:05 41° E 04:21:31 10° NE
Timation 2 Rocket 4.1 04:14:48 21° NNW 04:19:34 84° ENE 04:26:01 10° SSE
CZ-2C R/B 2.3 04:15:13 10° NNE 04:20:12 76° WNW 04:21:33 49° SW
Cosmos 1809 Rocket 4.3 04:17:54 10° SSW 04:24:02 79° W 04:30:09 10° N
ADEOS Rocket 3.6 04:19:06 10° N 04:25:06 42° WNW 04:25:40 41° WNW
NOSS 3-1 (C) 3.1 04:27:25 36° SSW 04:29:26 74° SE 04:35:11 10° NE
Iridium 4 Rocket 3.9 04:27:01 10° N 04:31:19 50° E 04:35:22 10° SSE
SJ 16-02 3.7 04:28:23 10° N 04:31:37 20° NE 04:34:51 10° E
Cosmos 2100 Rocket 3.8 04:25:34 10° NNW 04:31:42 74° W 04:37:49 10° S
Cosmos 2219 Rocket 2.5 04:36:49 42° WNW 04:37:38 45° NW 04:43:06 10° NNE
IRS-1D 4.0 04:35:18 10° NNE 04:40:15 58° ESE 04:45:06 10° S
SL-24 R/B - RUBIN 2 4.0 04:39:22 45° W 04:40:33 56° NW 04:45:22 10° NE
Cosmos 1707 Rocket 4.5 04:42:43 32° NNW 04:42:43 32° NNW 04:45:32 10° N
TIMED 4.3 04:40:17 40° NNW 04:41:47 79° WSW 04:46:02 10° SSE
NOSS 0 Rocket 4.4 04:37:58 10° SSW 04:43:59 61° ESE 04:50:03 10° NE
COSMOS 2428 2.6 04:41:42 10° SSW 04:47:24 88° WNW 04:53:08 10° NNE
USA 59 Rocket -1.0 04:50:48 76° WNW 04:50:50 76° NW 04:53:48 10° NE
SL-08 RB Rocket 3.9 04:47:23 10° N 04:51:47 47° WNW 04:53:29 31° WSW
Cosmos 1459 Rocket 4.0 04:46:38 10° NNW 04:52:53 59° W 04:59:05 10° S
Cosmos 1864 Rocket 4.4 04:47:33 10° NNW 04:53:49 74° W 05:00:07 10° S
Cosmos 2322 3.6 04:50:01 14° SW 04:54:53 70° WNW 05:00:34 10° NNE
FengYun 1-2 T 4.1 04:51:14 10° NNE 04:56:48 83° WNW 05:02:24 10° SSW
COSMO-SKYMED 1 2.6 04:54:57 10° SSE 04:59:04 75° ENE 05:03:13 10° N
Meteor 2-21 4.4 04:53:43 10° SSW 04:59:43 59° WNW 05:05:44 10° N
Cosmos 407 Rocket 3.3 04:54:47 11° NNW 04:59:44 81° WSW 05:04:49 10° SSE
SKYMED 2 3.4 04:56:02 10° S 05:00:23 79° WSW 05:04:46 10° NNW
Cosmos 1727 Rocket 4.3 04:56:32 10° SW 05:02:22 43° WNW 05:08:18 10° N
Cosmos 1725 Rocket 3.9 04:57:03 10° NNW 05:03:22 70° W 05:09:37 10° S
USA 267 3.4 04:57:02 10° ENE 05:03:28 61° NNW 05:07:39 23° W
Cosmos 2228 Rocket 3.7 05:03:28 32° WNW 05:03:30 32° WNW 05:07:29 10° N
Cosmos 1980 4.1 05:01:37 10° SSW 05:07:11 65° ESE 05:12:49 10° NNE
H-2A R/B 3.9 05:07:23 10° NNW 05:08:34 13° NW 05:08:34 13° NW
Cosmos 1802 Rocket 4.1 05:04:59 10° NNW 05:11:13 56° W 05:17:19 10° SSW
NOSS 3-1 (A) 3.3 05:08:55 10° SSW 05:13:35 68° SE 05:19:19 10° NE
Cosmos 2233 Rocket 4.0 05:08:15 10° N 05:14:36 82° W 05:20:53 10° S
Cosmos 1328 3.9 05:13:05 10° SW 05:16:31 40° WNW 05:20:00 10° N
Cosmos 2278 Rocket 2.3 05:11:40 12° NW 05:16:42 54° WSW 05:22:11 10° S
Cosmos 1703 Rocket 3.6 05:13:40 10° SSW 05:17:55 52° WNW 05:22:14 10° N
Cosmos 2251 Rocket 3.6 05:13:11 10° NNW 05:18:35 85° ENE 05:23:57 10° SSE
NOSS 2-1 (E) 2.9 05:18:52 24° WSW 05:20:40 54° NW 05:23:41 10° NE
CZ-3 R/B 4.3 05:17:33 10° SSW 05:20:40 12° S 05:23:05 10° S
Cosmos 1939 Rocket 3.5 05:17:38 10° N 05:21:03 30° WNW 05:23:42 14° WSW
Lacrosse 5 rocket 2.3 05:20:39 20° NW 05:21:53 25° N 05:24:44 10° NE
Cosmos 2173 Rocket 4.5 05:16:39 10° NNW 05:22:01 34° W 05:27:22 10° SSW
Meteor 2-16 Rocket 4.4 05:16:15 10° SSW 05:22:18 65° WNW 05:28:25 10° N
Cosmos 2333 Rocket 3.8 05:21:32 15° NW 05:23:06 17° NNW 05:26:44 10° N
Cosmos 2237 Rocket 2.4 05:17:47 10° SSW 05:23:27 79° ESE 05:29:08 10° NNE
USA-17 4.1 05:22:08 25° NW 05:23:47 69° SW 05:27:05 10° SE
SL-08 R/B 4.5 05:19:27 10° NNW 05:25:27 59° W 05:31:28 10° S
Cosmos 2292 Rocket 3.8 05:24:07 10° SSW 05:28:22 62° WNW 05:33:53 10° N
BlueWalker 3 3.4 05:27:40 18° WSW 05:28:43 20° SW 05:31:24 10° S
USA 276 4.1 05:29:39 11° SW 05:29:54 11° SW 05:30:50 10° SSW
ACS3 Solar Sail 3.2 05:27:35 10° NNW 05:31:01 16° NW 05:32:02 15° WNW
COSMOS 2455 4.2 05:28:15 16° WNW 05:31:10 23° NNW 05:35:52 10° NNE
Meteor 1-24 Rocket 4.0 05:27:36 10° SW 05:33:08 46° WNW 05:38:30 10° N
Helios 1A Rocket 3.2 05:30:34 10° SSW 05:33:36 30° W 05:36:22 12° NW
Cosmos 2242 Rocket 4.3 05:30:09 10° S 05:34:26 57° E 05:38:46 10° NNE
Cosmos 2369 Rocket 3.4 05:29:08 10° NNW 05:34:28 40° NE 05:39:48 10° ESE
CZ-4 R/B 4.0 05:30:48 10° N 05:35:35 53° WNW 05:40:16 10° SW
Cosmos 1782 Rocket 3.8 05:33:33 10° NNW 05:37:45 44° W 05:41:54 10° SSW
Cosmos 2360 Rocket 3.9 05:40:55 13° WNW 05:43:17 16° NNW 05:46:39 10° N
Cosmos 2322 Rocket 3.9 05:41:20 12° NW 05:43:41 15° NNW 05:46:50 10° N
Cosmos 2123 Rocket 4.4 05:38:07 10° SW 05:43:53 40° WNW 05:49:42 10° N
Meteor 2-5 Rocket 4.1 05:38:44 10° SW 05:44:21 43° WNW 05:49:55 10° N
NOAA 12 4.2 05:39:41 10° N 05:44:52 53° WNW 05:50:01 10° SW
Cosmos 1420 Rocket 4.1 05:40:19 10° SSW 05:45:35 89° ESE 05:50:56 10° NNE
Gbstr 26 Del rocket 3.7 05:41:19 11° WSW 05:46:17 86° NNW 05:52:41 10° ENE
CENTAUR R/B 3.7 05:40:10 10° NW 05:47:59 60° NE 05:57:07 10° ESE
ARIANE 5 R/B 4.3 05:45:41 10° NNE 05:50:21 37° E 05:55:03 10° SSE
SL-16 R/B 4.2 05:49:03 10° NW 05:50:33 11° NNW 05:52:05 10° N
Cosmos 1943 Rocket 3.1 05:48:22 10° NW 05:52:58 28° WSW 05:57:33 10° SSW
Cosmos 1812 1.9 05:53:52 10° N 05:56:50 88° WSW 05:59:44 10° S
CZ-2C R/B 4.1 05:54:52 10° NNW 05:57:29 14° NW 06:00:06 10° W
SMAP 4.0 05:54:40 10° NNE 05:59:15 54° E 06:03:48 10° S
CZ-2D R/B 4.3 05:58:55 10° NNE 06:01:57 41° E 06:04:58 10° S
Cosmos 2346 Rocket 4.5 05:56:22 10° SSW 06:02:29 65° WNW 06:08:34 10° N
NOSS 2-1 (C) 4.1 06:00:54 10° W 06:03:29 21° NW 06:05:53 10° NNE
NOSS 2-1 (D) 4.2 06:05:07 10° W 06:07:31 19° NNW 06:09:47 10° NNE
SJ 16-02 1.4 06:05:54 10° NNW 06:10:08 57° WSW 06:14:19 10° S
Iridium 4 Rocket 4.4 06:07:43 10° NW 06:10:37 18° WNW 06:13:25 10° WSW
Aureole 3 Rocket 3.5 06:07:01 10° NNW 06:11:07 55° W 06:16:43 10° S
Okean 1 Rocket 3.9 06:07:09 10° N 06:11:27 54° ENE 06:15:40 10° SSE
CBERS-1 4.0 06:09:56 10° N 06:15:02 70° WNW 06:20:07 10° SSW
